Overview Statistics Trail Chart Weather Telemetry Raw packets
 

This is the latest recevied weather packets stored in our database for station/object KC4JIR. If no packets are shown the sender has not sent any weather packets the latest 10 day(s).

<< 24 25 26 27 28 29 30 >>
Time Temp. Humidity Pressure Rain* Wind** Luminosity Snow
1788451527 32.22° C 68% 1015.7 hPa 0 mm - 819 W/m² -
1788451222 32.22° C 68% 1015.7 hPa 0 mm - 819 W/m² -
1788450920 31.67° C 69% 1015.4 hPa 0 mm - 827 W/m² -
1788450616 31.67° C 70% 1015.6 hPa 0 mm - 799 W/m² -
1788450312 31.67° C 71% 1015.7 hPa 0 mm - 734 W/m² -
1788449399 30.56° C 75% 1015.7 hPa 0 mm - 720 W/m² -
1788449094 30.56° C 75% 1015.8 hPa 0 mm - 720 W/m² -
1788448790 30.56° C 75% 1015.7 hPa 0 mm - 720 W/m² -
1788446964 30° C 81% 1015.7 hPa 0 mm - 589 W/m² -
1788446664 30° C 81% 1015.6 hPa 0 mm - 589 W/m² -
1788446360 28.89° C 81% 1015.7 hPa 0 mm - 402 W/m² -
1788446056 28.89° C 84% 1015.8 hPa 0 mm - 406 W/m² -
1788445751 28.89° C 84% 1015.7 hPa 0 mm - 406 W/m² -
1788445441 28.89° C 84% 1015.7 hPa 0 mm - 406 W/m² -
1788445137 28.33° C 86% 1015.8 hPa 0 mm - 389 W/m² -
1788444833 28.33° C 87% 1015.8 hPa 0 mm - 352 W/m² -
1788444528 27.78° C 88% 1015.6 hPa 0 mm - 322 W/m² -
1788444223 27.78° C 89% 1015.5 hPa 0 mm - 129 W/m² -
1788443919 27.22° C 90% 1015.6 hPa 0 mm - 163 W/m² -
1788443614 27.22° C 90% 1015.6 hPa 0 mm - 111 W/m² -
1788443313 27.22° C 90% 1015.5 hPa 0 mm - 87 W/m² -
1788443008 26.67° C 90% 1015.7 hPa 0 mm - 74 W/m² -
1788442705 26.67° C 92% 1015.9 hPa 0 mm - 78 W/m² -
1788442402 26.67° C 92% 1015.9 hPa 0 mm - 68 W/m² -
1788442096 26.11° C 94% 1015.8 hPa 0 mm - 63 W/m² -

* Rain latest hour (hover to see other rain measurements)
** Current wind speed in m/s (hover to see current wind gust speed)